Time,TemperatureF,DewpointF,PressureIn,WindDirection,WindDirectionDegrees,WindSpeedMPH,WindSpeedGustMPH,Humidity,HourlyPrecipIn,Conditions,Clouds,dailyrainin,SoftwareType,DateUTC
2013-03-05 00:02:00,35.0,-99.9,29.89,ENE,68,9.0,14.0,-999,0.00,,,0.01,,2013-03-05 06:02:00,
2013-03-05 00:11:00,35.0,-99.9,29.89,ENE,68,9.0,14.0,-999,0.00,,,0.01,,2013-03-05 06:11:00,
2013-03-05 00:22:00,35.0,-99.9,29.89,East,90,13.0,16.0,-999,0.00,,,0.01,,2013-03-05 06:22:00,
2013-03-05 00:32:00,35.0,-99.9,29.88,NE,45,3.0,15.0,-999,0.00,,,0.01,,2013-03-05 06:32:00,
2013-03-05 00:42:00,35.0,-99.9,29.88,NE,45,3.0,15.0,-999,0.00,,,0.01,,2013-03-05 06:42:00,
2013-03-05 00:52:00,35.0,-99.9,29.88,East,90,12.0,18.0,-999,0.00,,,0.01,,2013-03-05 06:52:00,
2013-03-05 01:01:00,35.0,-99.9,29.88,ENE,68,13.0,16.0,-999,0.00,,,0.01,,2013-03-05 07:01:00,
2013-03-05 01:11:00,35.0,-99.9,29.88,ENE,68,13.0,16.0,-999,0.00,,,0.01,,2013-03-05 07:11:00,
2013-03-05 01:22:00,35.0,-99.9,29.87,ENE,68,10.0,16.0,-999,0.00,,,0.01,,2013-03-05 07:22:00,
2013-03-05 01:32:00,35.0,-99.9,29.87,ENE,68,12.0,15.0,-999,0.00,,,0.01,,2013-03-05 07:32:00,
2013-03-05 01:42:00,35.0,-99.9,29.87,ENE,68,12.0,15.0,-999,0.00,,,0.01,,2013-03-05 07:42:00,
2013-03-05 01:52:00,35.0,-99.9,29.86,ENE,68,9.0,14.0,-999,0.00,,,0.01,,2013-03-05 07:52:00,
2013-03-05 02:02:00,36.0,-99.9,29.86,ENE,68,10.0,15.0,-999,0.00,,,0.01,,2013-03-05 08:02:00,
2013-03-05 02:11:00,36.0,-99.9,29.86,ENE,68,10.0,15.0,-999,0.00,,,0.01,,2013-03-05 08:11:00,
2013-03-05 02:21:00,36.0,-99.9,29.85,East,90,9.0,16.0,-999,0.00,,,0.01,,2013-03-05 08:21:00,
2013-03-05 02:32:00,36.0,-99.9,29.85,ENE,68,10.0,16.0,-999,0.00,,,0.01,,2013-03-05 08:32:00,
2013-03-05 02:42:00,36.0,-99.9,29.85,ENE,68,10.0,16.0,-999,0.00,,,0.01,,2013-03-05 08:42:00,
2013-03-05 02:52:00,36.0,-99.9,29.84,ENE,68,13.0,18.0,-999,0.00,,,0.01,,2013-03-05 08:52:00,
2013-03-05 03:02:00,36.0,-99.9,29.83,ENE,68,10.0,15.0,-999,0.00,,,0.01,,2013-03-05 09:02:00,
2013-03-05 03:11:00,36.0,-99.9,29.83,ENE,68,10.0,15.0,-999,0.00,,,0.01,,2013-03-05 09:11:00,
2013-03-05 03:22:00,36.0,-99.9,29.83,ENE,68,8.0,13.0,-999,0.00,,,0.01,,2013-03-05 09:22:00,
2013-03-05 03:32:00,36.0,-99.9,29.82,ENE,68,8.0,14.0,-999,0.00,,,0.01,,2013-03-05 09:32:00,
2013-03-05 03:43:00,36.0,-99.9,29.82,ENE,68,8.0,14.0,-999,0.00,,,0.01,,2013-03-05 09:43:00,
2013-03-05 03:52:00,35.0,-99.9,29.82,East,90,3.0,13.0,-999,0.00,,,0.01,,2013-03-05 09:52:00,
2013-03-05 04:02:00,36.0,-99.9,29.82,East,90,0.0,0.0,-999,0.00,,,0.01,,2013-03-05 10:02:00,
2013-03-05 04:11:00,36.0,-99.9,29.82,East,90,0.0,0.0,-999,0.00,,,0.01,,2013-03-05 10:11:00,
2013-03-05 04:22:00,36.0,-99.9,29.82,East,90,0.0,14.0,-999,0.00,,,0.01,,2013-03-05 10:22:00,
2013-03-05 04:32:00,36.0,-99.9,29.81,East,90,0.0,0.0,-999,0.00,,,0.01,,2013-03-05 10:32:00,
2013-03-05 04:42:00,36.0,-99.9,29.81,East,90,0.0,0.0,-999,0.00,,,0.01,,2013-03-05 10:42:00,
2013-03-05 04:52:00,36.0,-99.9,29.82,East,90,3.0,12.0,-999,0.00,,,0.01,,2013-03-05 10:52:00,
2013-03-05 05:02:00,36.0,-99.9,29.81,North,0,0.0,0.0,-999,0.00,,,0.01,,2013-03-05 11:02:00,
2013-03-05 05:12:00,36.0,-99.9,29.81,North,0,0.0,0.0,-999,0.00,,,0.01,,2013-03-05 11:12:00,
2013-03-05 05:22:00,36.0,-99.9,29.81,East,90,0.0,9.0,-999,0.00,,,0.01,,2013-03-05 11:22:00,
2013-03-05 05:32:00,36.0,-99.9,29.81,East,90,0.0,0.0,-999,0.00,,,0.01,,2013-03-05 11:32:00,
2013-03-05 05:42:00,36.0,-99.9,29.81,East,90,0.0,0.0,-999,0.00,,,0.01,,2013-03-05 11:42:00,
2013-03-05 05:52:00,36.0,-99.9,29.81,East,90,0.0,0.0,-999,0.00,,,0.01,,2013-03-05 11:52:00,
2013-03-05 06:03:00,36.0,-99.9,29.82,East,90,0.0,0.0,-999,0.00,,,0.01,,2013-03-05 12:03:00,
2013-03-05 06:12:00,36.0,-99.9,29.82,East,90,0.0,0.0,-999,0.00,,,0.01,,2013-03-05 12:12:00,
2013-03-05 06:22:00,36.0,-99.9,29.80,East,90,0.0,0.0,-999,0.00,,,0.01,,2013-03-05 12:22:00,
2013-03-05 06:32:00,36.0,-99.9,29.79,East,90,0.0,9.0,-999,0.00,,,0.01,,2013-03-05 12:32:00,
2013-03-05 06:42:00,36.0,-99.9,29.79,East,90,0.0,9.0,-999,0.00,,,0.01,,2013-03-05 12:42:00,
2013-03-05 06:53:00,36.0,-99.9,29.79,East,90,8.0,12.0,-999,0.00,,,0.01,,2013-03-05 12:53:00,
2013-03-05 07:02:00,36.0,-99.9,29.80,East,90,7.0,10.0,-999,0.00,,,0.01,,2013-03-05 13:02:00,
2013-03-05 07:12:00,36.0,-99.9,29.80,East,90,7.0,10.0,-999,0.00,,,0.01,,2013-03-05 13:12:00,
2013-03-05 07:22:00,36.0,-99.9,29.80,ENE,68,6.0,9.0,-999,0.00,,,0.01,,2013-03-05 13:22:00,
2013-03-05 07:32:00,36.0,-99.9,29.80,ENE,68,7.0,8.0,-999,0.00,,,0.01,,2013-03-05 13:32:00,
2013-03-05 07:42:00,36.0,-99.9,29.80,ENE,68,7.0,8.0,-999,0.00,,,0.01,,2013-03-05 13:42:00,
2013-03-05 07:52:00,37.0,-99.9,29.80,East,90,5.0,8.0,-999,0.00,,,0.01,,2013-03-05 13:52:00,
2013-03-05 08:02:00,36.0,-99.9,29.79,East,90,6.0,8.0,-999,0.00,,,0.01,,2013-03-05 14:02:00,
2013-03-05 08:11:00,36.0,-99.9,29.79,East,90,6.0,8.0,-999,0.00,,,0.01,,2013-03-05 14:11:00,
2013-03-05 08:22:00,36.0,-99.9,29.79,East,90,6.0,8.0,-999,0.00,,,0.01,,2013-03-05 14:22:00,
2013-03-05 08:32:00,36.0,-99.9,29.79,ENE,68,6.0,8.0,-999,0.00,,,0.01,,2013-03-05 14:32:00,
2013-03-05 08:42:00,36.0,-99.9,29.79,ENE,68,6.0,8.0,-999,0.00,,,0.01,,2013-03-05 14:42:00,
2013-03-05 08:52:00,36.0,-99.9,29.79,NNE,23,5.0,7.0,-999,0.00,,,0.01,,2013-03-05 14:52:00,
2013-03-05 09:02:00,37.0,-99.9,29.78,NE,45,5.0,7.0,-999,0.01,,,0.02,,2013-03-05 15:02:00,
2013-03-05 09:11:00,37.0,-99.9,29.78,NE,45,5.0,7.0,-999,0.01,,,0.02,,2013-03-05 15:11:00,
2013-03-05 09:22:00,37.0,-99.9,29.78,NNE,23,0.0,6.0,-999,0.03,,,0.04,,2013-03-05 15:22:00,
2013-03-05 09:32:00,37.0,-99.9,29.78,NE,45,0.0,5.0,-999,0.05,,,0.06,,2013-03-05 15:32:00,
2013-03-05 09:42:00,37.0,-99.9,29.78,NE,45,0.0,5.0,-999,0.05,,,0.06,,2013-03-05 15:42:00,
2013-03-05 09:52:00,37.0,-99.9,29.77,NNE,23,6.0,7.0,-999,0.05,,,0.06,,2013-03-05 15:52:00,
2013-03-05 10:02:00,37.0,-99.9,29.77,NNE,23,6.0,7.0,-999,0.05,,,0.07,,2013-03-05 16:02:00,
2013-03-05 10:11:00,37.0,-99.9,29.77,NNE,23,6.0,7.0,-999,0.05,,,0.07,,2013-03-05 16:11:00,
2013-03-05 10:22:00,36.0,-99.9,29.77,NNE,23,0.0,8.0,-999,0.05,,,0.09,,2013-03-05 16:22:00,
2013-03-05 10:32:00,37.0,-99.9,29.78,NNE,23,0.0,0.0,-999,0.03,,,0.09,,2013-03-05 16:32:00,
2013-03-05 10:42:00,37.0,-99.9,29.78,NNE,23,0.0,0.0,-999,0.03,,,0.09,,2013-03-05 16:42:00,
2013-03-05 10:52:00,36.0,-99.9,29.77,NNE,23,0.0,0.0,-999,0.04,,,0.10,,2013-03-05 16:52:00,
2013-03-05 11:01:00,36.0,-99.9,29.77,NNE,23,0.0,0.0,-999,0.03,,,0.10,,2013-03-05 17:01:00,
2013-03-05 11:11:00,36.0,-99.9,29.77,NNE,23,0.0,0.0,-999,0.03,,,0.10,,2013-03-05 17:11:00,
2013-03-05 11:22:00,36.0,-99.9,29.76,NNE,23,0.0,0.0,-999,0.02,,,0.11,,2013-03-05 17:22:00,
2013-03-05 11:32:00,35.0,-99.9,29.75,NNE,23,0.0,0.0,-999,0.02,,,0.11,,2013-03-05 17:32:00,
2013-03-05 11:42:00,35.0,-99.9,29.75,NNE,23,0.0,0.0,-999,0.02,,,0.11,,2013-03-05 17:42:00,
2013-03-05 11:53:00,34.0,-99.9,29.75,North,0,5.0,7.0,-999,0.01,,,0.10,,2013-03-05 17:53:00,
2013-03-05 12:02:00,34.0,-99.9,29.75,North,0,3.0,7.0,-999,0.01,,,0.10,,2013-03-05 18:02:00,
2013-03-05 12:11:00,34.0,-99.9,29.75,North,0,3.0,7.0,-999,0.01,,,0.10,,2013-03-05 18:11:00,
2013-03-05 12:22:00,34.0,-99.9,29.75,North,0,3.0,6.0,-999,0.01,,,0.11,,2013-03-05 18:22:00,
2013-03-05 12:32:00,33.0,-99.9,29.75,NW,315,3.0,5.0,-999,0.01,,,0.11,,2013-03-05 18:32:00,
2013-03-05 12:42:00,33.0,-99.9,29.75,NW,315,3.0,5.0,-999,0.01,,,0.11,,2013-03-05 18:42:00,
2013-03-05 12:53:00,33.0,-99.9,29.74,NW,315,0.0,0.0,-999,0.01,,,0.11,,2013-03-05 18:53:00,
2013-03-05 13:02:00,33.0,-99.9,29.73,NW,315,0.0,0.0,-999,0.01,,,0.11,,2013-03-05 19:02:00,
2013-03-05 13:11:00,33.0,-99.9,29.73,NW,315,0.0,0.0,-999,0.01,,,0.11,,2013-03-05 19:11:00,
2013-03-05 13:22:00,33.0,-99.9,29.72,NW,315,0.0,0.0,-999,0.00,,,0.11,,2013-03-05 19:22:00,
2013-03-05 13:32:00,33.0,-99.9,29.72,NW,315,0.0,0.0,-999,0.00,,,0.11,,2013-03-05 19:32:00,
2013-03-05 13:42:00,33.0,-99.9,29.72,NW,315,0.0,0.0,-999,0.00,,,0.11,,2013-03-05 19:42:00,
2013-03-05 13:52:00,33.0,-99.9,29.72,NW,315,0.0,0.0,-999,0.00,,,0.11,,2013-03-05 19:52:00,
2013-03-05 14:02:00,33.0,-99.9,29.72,NW,315,0.0,0.0,-999,0.00,,,0.11,,2013-03-05 20:02:00,
2013-03-05 14:11:00,33.0,-99.9,29.72,NW,315,0.0,0.0,-999,0.01,,,0.12,,2013-03-05 20:11:00,
2013-03-05 14:22:00,33.0,-99.9,29.72,NW,315,0.0,0.0,-999,0.01,,,0.12,,2013-03-05 20:22:00,
2013-03-05 14:32:00,33.0,-99.9,29.73,West,270,0.0,6.0,-999,0.03,,,0.14,,2013-03-05 20:32:00,
2013-03-05 14:42:00,33.0,-99.9,29.73,West,270,0.0,6.0,-999,0.03,,,0.14,,2013-03-05 20:42:00,
2013-03-05 14:52:00,33.0,-99.9,29.73,West,270,1.0,8.0,-999,0.03,,,0.14,,2013-03-05 20:52:00,
2013-03-05 15:02:00,33.0,-99.9,29.73,West,270,2.0,10.0,-999,0.05,,,0.16,,2013-03-05 21:02:00,
2013-03-05 15:11:00,33.0,-99.9,29.73,West,270,2.0,10.0,-999,0.05,,,0.16,,2013-03-05 21:11:00,
2013-03-05 15:22:00,32.0,-99.9,29.74,West,270,6.0,15.0,-999,0.04,,,0.16,,2013-03-05 21:22:00,
2013-03-05 15:32:00,31.0,-99.9,29.74,WNW,293,6.0,18.0,-999,0.03,,,0.16,,2013-03-05 21:32:00,
2013-03-05 15:42:00,31.0,-99.9,29.74,WNW,293,6.0,18.0,-999,0.03,,,0.16,,2013-03-05 21:42:00,
2013-03-05 15:53:00,31.0,-99.9,29.74,West,270,14.0,25.0,-999,0.03,,,0.17,,2013-03-05 21:53:00,
2013-03-05 16:01:00,31.0,-99.9,29.75,West,270,0.0,13.0,-999,0.01,,,0.17,,2013-03-05 22:01:00,
2013-03-05 16:12:00,31.0,-99.9,29.75,West,270,0.0,13.0,-999,0.01,,,0.17,,2013-03-05 22:12:00,
2013-03-05 16:22:00,30.0,-99.9,29.75,West,270,0.0,0.0,-999,0.01,,,0.17,,2013-03-05 22:22:00,
2013-03-05 16:32:00,30.0,-99.9,29.75,West,270,0.0,0.0,-999,0.00,,,0.17,,2013-03-05 22:32:00,
2013-03-05 16:42:00,30.0,-99.9,29.75,West,270,0.0,0.0,-999,0.00,,,0.17,,2013-03-05 22:42:00,
2013-03-05 16:52:00,30.0,-99.9,29.76,West,270,0.0,0.0,-999,0.00,,,0.17,,2013-03-05 22:52:00,
2013-03-05 17:01:00,30.0,-99.9,29.76,West,270,0.0,0.0,-999,0.00,,,0.17,,2013-03-05 23:01:00,
2013-03-05 17:11:00,30.0,-99.9,29.76,West,270,0.0,0.0,-999,0.00,,,0.17,,2013-03-05 23:11:00,
2013-03-05 17:22:00,29.0,-99.9,29.77,West,270,0.0,0.0,-999,0.00,,,0.17,,2013-03-05 23:22:00,
2013-03-05 17:32:00,29.0,-99.9,29.78,West,270,0.0,0.0,-999,0.00,,,0.17,,2013-03-05 23:32:00,
2013-03-05 17:42:00,29.0,-99.9,29.78,West,270,0.0,0.0,-999,0.00,,,0.17,,2013-03-05 23:42:00,
2013-03-05 17:53:00,29.0,-99.9,29.78,West,270,0.0,0.0,-999,0.00,,,0.17,,2013-03-05 23:53:00,
2013-03-05 18:02:00,29.0,-99.9,29.78,West,270,0.0,0.0,-999,0.00,,,0.17,,2013-03-06 00:02:00,
2013-03-05 18:11:00,29.0,-99.9,29.78,West,270,0.0,0.0,-999,0.00,,,0.17,,2013-03-06 00:11:00,
2013-03-05 18:22:00,29.0,-99.9,29.79,West,270,0.0,0.0,-999,0.00,,,0.17,,2013-03-06 00:22:00,
2013-03-05 18:32:00,29.0,-99.9,29.79,West,270,0.0,0.0,-999,0.00,,,0.17,,2013-03-06 00:32:00,
2013-03-05 18:42:00,29.0,-99.9,29.79,West,270,0.0,0.0,-999,0.00,,,0.17,,2013-03-06 00:42:00,
2013-03-05 18:52:00,29.0,-99.9,29.79,West,270,0.0,0.0,-999,0.00,,,0.17,,2013-03-06 00:52:00,
2013-03-05 19:02:00,29.0,-99.9,29.79,West,270,0.0,0.0,-999,0.00,,,0.17,,2013-03-06 01:02:00,
2013-03-05 19:11:00,29.0,-99.9,29.79,West,270,0.0,0.0,-999,0.00,,,0.17,,2013-03-06 01:11:00,
2013-03-05 19:22:00,29.0,-99.9,29.80,West,270,0.0,0.0,-999,0.00,,,0.17,,2013-03-06 01:22:00,
2013-03-05 19:32:00,29.0,-99.9,29.80,West,270,0.0,0.0,-999,0.00,,,0.17,,2013-03-06 01:32:00,
2013-03-05 19:42:00,29.0,-99.9,29.80,West,270,0.0,0.0,-999,0.00,,,0.17,,2013-03-06 01:42:00,
2013-03-05 19:52:00,29.0,-99.9,29.80,West,270,0.0,0.0,-999,0.00,,,0.17,,2013-03-06 01:52:00,
2013-03-05 20:01:00,29.0,-99.9,29.80,West,270,0.0,0.0,-999,0.00,,,0.17,,2013-03-06 02:01:00,
2013-03-05 20:11:00,29.0,-99.9,29.80,West,270,0.0,0.0,-999,0.00,,,0.17,,2013-03-06 02:11:00,
2013-03-05 20:22:00,29.0,-99.9,29.80,West,270,0.0,0.0,-999,0.00,,,0.17,,2013-03-06 02:22:00,
2013-03-05 20:32:00,29.0,-99.9,29.80,West,270,0.0,0.0,-999,0.00,,,0.17,,2013-03-06 02:32:00,
2013-03-05 20:42:00,29.0,-99.9,29.80,West,270,0.0,0.0,-999,0.00,,,0.17,,2013-03-06 02:42:00,
2013-03-05 20:52:00,29.0,-99.9,29.80,West,270,0.0,0.0,-999,0.00,,,0.17,,2013-03-06 02:52:00,
2013-03-05 21:02:00,29.0,-99.9,29.81,West,270,0.0,0.0,-999,0.00,,,0.17,,2013-03-06 03:02:00,
2013-03-05 21:12:00,29.0,-99.9,29.81,West,270,0.0,0.0,-999,0.00,,,0.17,,2013-03-06 03:12:00,
2013-03-05 21:22:00,29.0,-99.9,29.82,West,270,0.0,0.0,-999,0.00,,,0.17,,2013-03-06 03:22:00,
2013-03-05 21:32:00,29.0,-99.9,29.83,West,270,0.0,0.0,-999,0.00,,,0.17,,2013-03-06 03:32:00,
2013-03-05 21:42:00,29.0,-99.9,29.83,West,270,0.0,0.0,-999,0.00,,,0.17,,2013-03-06 03:42:00,
2013-03-05 21:53:00,29.0,-99.9,29.84,West,270,0.0,0.0,-999,0.00,,,0.17,,2013-03-06 03:53:00,
2013-03-05 22:02:00,29.0,-99.9,29.84,West,270,0.0,0.0,-999,0.00,,,0.17,,2013-03-06 04:02:00,
2013-03-05 22:11:00,29.0,-99.9,29.84,West,270,0.0,0.0,-999,0.00,,,0.17,,2013-03-06 04:11:00,
2013-03-05 22:22:00,28.0,-99.9,29.85,West,270,0.0,0.0,-999,0.00,,,0.17,,2013-03-06 04:22:00,
2013-03-05 22:32:00,29.0,-99.9,29.86,West,270,0.0,0.0,-999,0.00,,,0.17,,2013-03-06 04:32:00,
2013-03-05 22:42:00,29.0,-99.9,29.86,West,270,0.0,0.0,-999,0.00,,,0.17,,2013-03-06 04:42:00,
2013-03-05 22:52:00,29.0,-99.9,29.87,West,270,0.0,0.0,-999,0.00,,,0.17,,2013-03-06 04:52:00,
2013-03-05 23:02:00,29.0,-99.9,29.88,West,270,0.0,0.0,-999,0.00,,,0.17,,2013-03-06 05:02:00,
2013-03-05 23:12:00,28.0,-99.9,29.88,West,270,0.0,0.0,-999,0.00,,,0.17,,2013-03-06 05:12:00,
2013-03-05 23:23:00,28.0,-99.9,29.88,West,270,0.0,0.0,-999,0.00,,,0.17,,2013-03-06 05:23:00,
2013-03-05 23:32:00,28.0,-99.9,29.89,West,270,0.0,0.0,-999,0.00,,,0.17,,2013-03-06 05:32:00,
2013-03-05 23:42:00,28.0,-99.9,29.89,West,270,0.0,0.0,-999,0.00,,,0.17,,2013-03-06 05:42:00,
2013-03-05 23:52:00,28.0,-99.9,29.90,West,270,0.0,0.0,-999,0.00,,,0.17,,2013-03-06 05:52:00,